SCP
4 4 5 6 7 6 5 4 3 3 4 4 4 3 3 2 2 2 2 3 3 3 3 3 2 2 1 1 1 1 1 1 1 1 1 1 1 1 1 1 1 0 0
4 4 4 5 6 6 6 4 4 4 4 4 4 4 3 3 3 3 3 3 3 3 3 3 2 2 2 1 1 1 1 1 1 1 1 1 1 1 1 1 1 1 0
4 4 4 4 5 6 6 5 4 4 4 4 4 4 4 4 4 3 3 3 2 2 2 2 2 2 2 1 1 1 1 1 1 1 1 1 1 1 1 1 1 1 1
3 3 3 4 5 6 5 5 4 3 3 3 5 5 5 4 4 3 3 3 3 2 2 2 2 2 2 1 1 1 1 1 1 1 1 1 1 1 1 1 1 1 1
2 3 3 3 4 5 4 4 3 3 2 3 3 4 5 4 4 3 3 3 2 2 2 2 2 2 1 1 1 1 1 1 1 1 1 1 1 1 1 1 1 1 1
2 2 2 2 3 3 3 2 2 2 2 2 2 3 4 4 4 3 2 2 2 2 2 2 1 1 1 1 1 1 1 1 1 1 1 1 1 1 1 1 1 1 1
2 2 2 2 2 2 2 1 1 1 1 1 1 2 3 3 3 3 2 2 2 2 2 2 2 1 1 1 1 1 1 1 1 1 1 1 1 1 1 1 1 1 1
2 2 2 2 2 2 2 1 1 1 1 1 1 1 2 2 2 2 1 1 1 1 1 1 1 1 1 1 1 1 1 1 1 1 1 1 1 1 1 1 1 1 1
2 2 2 2 2 2 2 1 1 1 1 1 1 1 1 1 1 1 1 1 1 1 1 1 1 1 1 1 1 1 1 1 1 1 1 1 1 1 1 1 1 1 1
1 1 1 1 2 2 2 2 1 1 1 1 1 1 1 1 1 1 1 1 1 1 1 1 1 1 1 1 1 1 1 1 1 1 1 1 1 1 1 1 1 1 1
1 1 1 1 1 2 2 2 2 1 1 1 1 1 1 1 1 1 1 0 1 1 1 1 1 1 1 1 1 1 1 1 1 1 1 1 1 1 1 1 1 1 1
0 0 1 1 1 1 1 2 2 1 1 1 1 1 1 1 1 1 1 1 1 1 1 1 1 1 1 1 1 1 1 1 0 0 1 1 1 1 1 1 1 1 0
0 0 1 1 1 1 1 1 1 2 2 1 1 1 1 1 1 1 1 1 1 1 1 1 1 2 1 1 1 1 1 0 0 0 0 0 1 1 1 1 1 0 0
0 0 1 1 1 1 1 1 1 1 2 2 1 1 1 2 2 2 2 2 1 1 1 1 2 2 2 1 1 1 0 0 0 0 0 0 0 0 0 0 0 0 0
0 0 1 1 1 1 1 1 1 1 1 1 2 2 2 2 2 2 2 2 1 1 1 2 2 2 2 1 1 0 0 0 0 0 0 0 0 0 0 0 0 0 0
0 0 0 1 1 1 1 1 1 1 1 1 2 2 2 2 2 2 2 2 1 1 1 2 2 2 2 1 1 1 0 0 0 0 0 0 0 0 0 0 0 0 0
0 0 0 0 0 1 1 1 1 1 1 1 1 2 2 2 2 2 2 2 2 2 2 2 2 2 2 1 1 1 0 0 0 0 0 0 0 0 0 0 0 0 0
0 0 0 0 0 0 1 1 1 1 1 1 1 1 2 2 2 2 2 2 2 2 2 2 2 2 2 2 1 1 0 0 0 0 0 0 0 0 0 0 0 0 0
0 0 0 0 0 0 1 1 1 1 1 1 1 1 1 1 2 2 2 2 2 2 2 2 2 3 2 2 1 1 0 0 0 0 0 0 0 0 0 0 0 0 0
0 0 0 0 0 0 0 1 1 1 1 1 1 1 1 1 1 2 2 2 2 2 2 2 2 3 2 2 1 1 0 0 0 0 0 0 0 0 0 0 0 0 0
0 0 0 0 0 0 0 0 1 1 1 1 1 1 1 1 1 1 1 1 1 2 2 2 2 2 2 2 1 1 1 0 0 0 0 0 0 0 0 0 0 0 0
0 0 0 0 0 0 0 0 0 1 1 1 1 1 1 1 1 1 1 1 1 1 1 2 2 2 2 2 1 1 1 0 0 0 0 0 0 0 0 0 0 0 0
0 0 0 0 0 0 0 0 0 0 0 1 1 1 1 1 1 1 1 0 1 1 1 1 1 1 2 2 1 1 1 0 0 0 0 0 0 0 0 0 0 0 0
0 0 0 0 0 0 0 0 0 0 0 0 1 1 1 1 1 1 1 0 0 0 0 1 1 1 1 1 1 1 1 0 0 0 0 0 0 0 0 0 0 0 0
0 0 0 0 0 0 0 0 0 0 0 0 0 1 1 1 1 1 1 1 0 0 0 0 0 0 0 0 1 1 1 0 0 0 0 0 0 0 0 0 0 0 0
1 0 0 0 0 0 0 0 0 0 0 0 0 0 1 1 1 0 0 1 1 0 0 0 0 0 0 0 0 1 1 0 0 0 0 0 0 0 0 0 0 0 0
Wind_Speed
4 5 5 5 6 6 7 7 7 9 10 10 9 9 9 10 8 5 4 15 17 18 18 18 17 17 16 16 17 17 17 17 17 16 15 14 13 13 13 13 12 11 11
4 5 6 6 7 6 5 6 7 7 7 7 8 7 7 7 6 5 4 10 16 17 18 18 18 18 18 17 17 17 17 17 17 17 16 15 15 14 14 14 14 13 12
5 5 6 6 6 6 6 5 6 5 6 6 7 7 6 6 6 6 5 5 8 16 18 19 19 19 19 19 19 18 18 18 17 17 17 17 16 15 15 15 15 15 14
5 5 5 6 5 4 4 5 6 6 6 6 5 6 6 5 6 6 5 6 5 8 14 20 20 20 20 20 20 20 19 19 18 18 19 18 18 18 17 16 16 16 15
4 4 4 4 3 3 4 6 5 5 7 7 7 7 6 6 6 8 7 8 8 8 8 15 21 20 21 22 20 20 19 19 19 20 20 20 20 19 18 18 17 17 16
4 3 3 3 2 2 3 4 5 5 5 5 8 8 7 7 6 7 8 9 9 11 11 12 12 14 20 19 19 19 19 20 19 20 20 20 20 20 19 19 18 18 17
4 3 3 2 2 2 2 3 3 4 4 4 4 5 5 7 8 7 7 7 10 12 12 11 9 8 10 18 19 19 20 20 20 20 20 19 19 19 19 19 19 18 18
4 5 3 3 3 2 3 2 2 2 2 3 3 3 3 4 6 9 8 8 9 9 10 12 11 10 8 8 12 19 19 20 20 20 20 19 19 19 19 19 19 18 18
5 4 4 3 3 3 3 3 2 2 2 2 3 3 2 3 3 5 8 7 7 5 5 6 10 11 10 7 9 17 21 20 20 20 19 19 18 18 19 19 18 18 18
6 4 3 3 3 3 3 4 4 2 2 3 3 3 4 1 2 0 3 5 6 5 5 5 7 8 8 6 6 12 19 18 17 18 17 18 18 17 18 18 19 18 18
7 5 2 1 3 3 3 3 3 3 2 3 3 3 4 4 4 2 2 3 4 5 4 3 2 4 6 6 5 9 17 17 16 15 15 15 17 18 18 19 19 19 19
4 5 3 0 2 3 3 3 3 4 4 5 4 3 3 4 4 3 3 3 5 5 6 4 3 3 3 3 4 8 14 15 14 13 13 13 15 17 18 18 19 19 20
6 6 6 2 2 2 3 3 3 3 3 5 6 5 4 4 5 3 2 2 3 3 4 4 4 3 3 5 5 8 9 10 11 11 11 11 12 14 16 17 18 18 18
7 7 6 5 4 4 4 3 2 3 2 2 4 5 4 4 4 3 2 1 1 2 4 5 4 4 4 5 6 5 6 8 9 10 10 11 11 12 13 14 15 15 15
9 9 9 8 6 6 5 4 3 4 3 3 3 3 3 4 4 4 4 2 2 3 3 4 3 5 4 5 5 4 5 5 6 7 9 10 10 10 11 11 12 12 12
8 8 9 8 8 7 7 6 5 5 5 4 3 3 3 2 3 3 4 3 2 2 2 3 3 7 6 7 5 6 7 7 4 4 6 7 9 9 9 10 10 10 10
8 8 9 9 9 9 8 7 7 7 7 6 6 5 5 4 3 3 3 3 3 2 2 2 4 7 8 8 7 6 6 5 5 6 5 6 6 7 7 7 8 8 8
8 9 9 9 10 10 9 8 9 10 9 8 7 7 7 5 5 3 3 3 3 3 2 3 5 6 7 9 8 6 6 7 5 7 8 9 8 8 8 8 8 8 8
8 9 9 9 9 9 10 10 9 9 10 9 8 8 8 8 7 5 4 3 3 3 2 2 4 5 6 8 8 7 8 6 6 7 9 10 11 11 11 11 10 10 10
9 9 9 9 9 10 10 10 11 10 10 10 9 8 8 9 8 8 6 5 4 3 2 3 3 5 6 8 8 8 6 5 5 5 7 8 12 13 13 12 12 12 12
11 10 9 10 10 10 11 10 9 12 10 10 10 9 9 10 11 9 8 7 6 4 3 3 4 4 6 8 8 7 7 6 4 4 5 5 6 6 7 10 13 14 14
10 10 10 11 11 12 13 11 9 8 9 9 9 9 10 10 12 13 13 12 11 9 7 5 4 5 6 8 7 9 9 7 4 3 5 5 5 6 6 6 11 15 15
11 10 11 11 11 11 14 15 14 10 10 9 9 9 12 12 13 11 12 13 12 12 11 7 6 6 5 6 8 10 10 9 5 6 5 5 6 7 6 7 12 14 15
10 10 10 11 11 12 14 14 15 13 11 10 10 9 10 9 9 10 11 11 10 10 10 8 6 5 4 2 5 7 9 8 8 5 5 5 5 6 7 6 10 13 14
10 10 10 10 11 11 13 14 13 10 9 10 10 10 11 10 11 11 10 10 9 8 10 11 9 7 5 3 3 5 9 11 9 5 3 5 7 7 6 5 7 11 12
10 10 10 10 10 10 11 12 12 8 8 7 7 9 12 11 11 12 9 9 9 8 8 10 9 8 7 6 7 7 9 11 10 6 4 6 8 6 5 4 4 5 6
Wind_Direction
258 264 266 257 241 231 221 221 224 218 219 226 226 215 205 212 229 238 173 179 181 183 185 189 195 203 207 207 206 206 205 203 199 196 198 203 204 202 199 197 193 190 190
272 268 267 263 255 246 241 227 231 238 231 227 228 230 222 221 225 230 192 191 192 192 192 194 199 206 210 210 209 209 208 207 203 199 200 205 208 208 204 201 198 194 192
296 286 275 267 258 252 253 248 242 243 244 235 228 234 233 231 233 228 229 212 201 203 202 201 203 206 210 212 212 211 209 208 204 201 201 204 207 211 209 204 201 198 194
317 299 280 273 266 257 249 248 242 242 242 241 234 231 233 227 226 224 227 239 231 216 212 212 207 206 209 212 213 213 210 208 205 203 204 206 207 210 211 207 202 199 197
314 308 300 291 283 264 252 252 243 235 238 238 237 230 229 227 216 219 214 222 233 235 219 215 210 206 210 213 214 214 211 209 207 206 208 208 209 209 211 210 205 201 199
311 302 291 288 287 280 267 255 252 238 235 234 241 238 221 217 210 212 214 215 220 226 224 214 205 208 211 213 214 214 213 211 208 208 211 212 210 209 209 210 208 204 202
325 299 300 296 263 254 266 278 261 246 236 229 236 249 239 219 209 208 209 213 217 220 219 202 189 192 204 214 215 214 214 214 211 210 211 212 210 208 207 208 209 208 205
326 313 298 286 264 254 263 277 267 238 239 223 217 227 232 224 217 210 201 206 214 213 212 193 182 188 193 194 211 214 214 215 215 213 211 210 209 207 205 205 207 209 208
315 308 303 293 280 260 252 244 247 247 252 266 234 226 234 235 219 200 198 199 198 206 207 190 184 184 192 185 193 209 213 213 214 214 211 208 206 203 202 203 205 209 211
301 292 298 311 296 279 261 242 223 212 244 266 281 263 265 286 291 278 197 191 184 194 211 203 192 177 181 188 191 189 204 208 211 214 211 207 203 202 202 203 206 209 212
285 282 276 317 320 303 292 276 265 229 227 248 260 274 273 257 239 230 210 188 183 181 199 202 183 164 173 182 188 183 189 197 203 208 209 206 204 204 205 207 210 212 214
305 312 312 35 322 328 325 305 287 258 235 247 258 264 268 266 247 222 210 196 188 185 176 176 182 165 167 162 180 169 177 185 192 198 203 205 204 205 207 210 213 215 217
319 317 321 324 304 303 303 302 305 292 258 244 251 260 268 276 285 268 221 223 191 168 157 162 164 154 150 120 110 129 156 170 183 191 198 204 206 206 208 211 215 217 219
300 304 316 311 294 279 273 269 283 283 284 267 257 258 270 280 294 304 291 255 212 181 169 168 140 135 116 111 122 132 142 163 181 192 198 203 207 210 211 211 212 215 217
312 320 325 312 296 278 262 251 246 251 254 261 263 262 260 271 293 310 316 303 232 211 202 163 135 136 125 111 138 143 125 146 172 190 196 200 204 207 209 210 210 210 211
303 305 301 299 295 286 271 251 242 236 222 222 226 239 250 261 285 294 305 308 291 246 217 178 156 150 143 136 137 111 105 113 102 152 177 188 194 199 202 203 200 200 200
310 305 301 297 294 289 280 265 251 249 234 221 213 215 222 219 243 269 286 299 296 283 235 187 142 143 136 131 131 128 139 120 88 84 112 134 152 164 176 179 177 177 176
299 299 298 296 292 289 285 277 264 254 242 231 220 212 211 208 209 225 246 265 279 288 266 200 151 152 149 139 138 136 124 105 95 83 89 97 107 115 124 133 137 141 143
291 291 289 288 287 287 285 280 273 265 255 244 231 219 210 202 202 199 207 224 245 267 275 227 188 162 148 144 134 120 109 109 106 103 90 86 91 96 101 107 112 117 120
291 287 286 284 282 281 279 276 272 268 260 252 242 228 216 206 203 196 199 204 208 220 242 243 216 172 155 149 138 134 128 125 118 105 88 89 90 88 92 98 103 106 108
292 291 289 285 280 277 269 265 262 264 259 253 248 237 227 216 209 197 195 192 192 194 203 220 218 190 167 162 159 152 141 127 111 130 124 117 104 91 85 90 98 105 105
293 290 284 282 278 276 281 287 282 278 274 264 254 246 241 226 216 200 195 190 188 192 195 201 208 206 194 177 162 154 146 147 143 158 136 121 109 94 81 78 101 107 108
295 289 283 279 275 270 269 268 266 263 261 258 249 242 243 232 208 197 195 193 194 196 193 187 203 209 200 187 168 161 162 161 144 154 131 109 97 86 78 84 102 108 111
293 289 283 279 275 271 265 257 256 257 255 248 241 234 234 244 223 197 189 194 198 198 197 195 200 207 203 207 180 167 158 134 120 131 127 112 107 97 90 86 97 109 113
292 288 284 278 275 273 265 256 247 253 247 244 236 232 227 227 227 203 191 192 196 197 199 200 199 198 198 211 209 157 153 146 141 139 124 115 122 110 96 93 98 107 113
290 290 286 282 280 277 268 252 239 245 244 240 234 234 228 220 211 194 192 192 198 197 186 190 200 205 204 211 205 181 167 157 146 144 156 128 144 133 114 107 119 124 112